Accueil
METAR-TAF:

METAR-TAF

Aéroports :

Bridgeport Municipal Airport

Bridgeport, Texas, États-Unis

latitude: 33-10-31N, longitude: 097-49-42W, altitude: 260 m

Observation

Le bulletin a été fait il y a 10 minutes, à 19:15 UTC
Vent 7 kt de sud/sud-ouest
Température 36°C
Humidité 35%
Pression 1016 hPa
Visibilité: 16.1 km
Nuages épars à une hauteur de 6500 ft
Nuages fragmentés à une hauteur de 9000 ft
Nuages fragmentés à une hauteur de 11000 ft

METAR: KXBP 151915Z AUTO 20007KT 10SM SCT065 BKN090 BKN110 36/18 A3000 RMK AO2 T03570180

Heure: 14:25 (19:25 UTC)


TAF: absent

Observations et prévisions météorologiques de plus de 4000 aéroports (messages METAR et TAF).

Les stations disponibles sont représentées par des disques jaunes et rouges sur la carte.

Passer la souris dessus pour voir le nom de la station.

Cliquer dessus pour voir les observations et prévisions météorologiques.

Pour changer de carte: cliquez sur les boutons verts avec une croix noire pour zoomer, sur le bouton vert avec un tiret pour effectuer un zoom arrière, ou sur les flèches vertes pour les cartes adjacentes.


METAR-TAF: